| time (UTC) | temp C | wind direction | speed KPH | gust KPH | rain 1hr cm | rain 24hr cm | rain mn cm | humidity % | barometer mb |
| 20260509062839 | 10 | 132 | 0.0 | 3.2 | 0.00 | 0.00 | 0.00 | 59 | 979.9 |
| 20260509062834 | 10 | 151 | 0.0 | 1.6 | 0.00 | 0.00 | 0.00 | 60 | 979.8 |
| 20260509062333 | 10 | 169 | 0.0 | 1.6 | 0.00 | 0.00 | 0.00 | 59 | 979.9 |
| 20260509061338 | 10 | 138 | 0.0 | 6.4 | 0.00 | 0.00 | 0.00 | 59 | 980.0 |
| 20260509061333 | 10 | 194 | 0.0 | 3.2 | 0.00 | 0.00 | 0.00 | 59 | 980.0 |
| 20260509060335 | 11 | 140 | 1.6 | 6.4 | 0.00 | 0.00 | 0.00 | 59 | 980.2 |
| 20260509060331 | 11 | 139 | 0.0 | 6.4 | 0.00 | 0.00 | 0.00 | 59 | 980.1 |
| 20260509055327 | 11 | 129 | 1.6 | 6.4 | 0.00 | 0.00 | 0.00 | 59 | 980.2 |
| 20260509054828 | 11 | 164 | 3.2 | 6.4 | 0.00 | 0.00 | 0.00 | 59 | 980.4 |
| 20260509054329 | 11 | 146 | 3.2 | 8.0 | 0.00 | 0.00 | 0.00 | 59 | 980.6 |
| 20260509053826 | 11 | 179 | 3.2 | 9.7 | 0.00 | 0.00 | 0.00 | 58 | 980.5 |
| 20260509053330 | 11 | 159 | 4.8 | 9.7 | 0.00 | 0.00 | 0.00 | 57 | 980.6 |
| 20260509053326 | 11 | 151 | 4.8 | 9.7 | 0.00 | 0.00 | 0.00 | 57 | 980.5 |
| 20260509052931 | 11 | 195 | 4.8 | 12.9 | 0.00 | 0.00 | 0.00 | 58 | 980.7 |
| 20260509051826 | 11 | 165 | 6.4 | 12.9 | 0.00 | 0.00 | 0.00 | 58 | 980.6 |
| 20260509051331 | 11 | 172 | 6.4 | 11.3 | 0.00 | 0.00 | 0.00 | 60 | 980.6 |
| 20260509051326 | 11 | 186 | 6.4 | 12.9 | 0.00 | 0.00 | 0.00 | 59 | 980.6 |
| 20260509050324 | 10 | 193 | 4.8 | 11.3 | 0.00 | 0.00 | 0.00 | 60 | 980.6 |
| 20260509045828 | 10 | 158 | 3.2 | 11.3 | 0.00 | 0.00 | 0.00 | 62 | 980.6 |
| 20260509045823 | 10 | 163 | 3.2 | 8.0 | 0.00 | 0.00 | 0.00 | 62 | 980.6 |
| 20260509044828 | 10 | 147 | 1.6 | 6.4 | 0.00 | 0.00 | 0.00 | 62 | 980.8 |
| 20260509044824 | 10 | 179 | 3.2 | 11.3 | 0.00 | 0.00 | 0.00 | 62 | 980.7 |
| 20260509043824 | 10 | 140 | 1.6 | 4.8 | 0.00 | 0.00 | 0.00 | 63 | 980.9 |
| 20260509043324 | 10 | 146 | 1.6 | 4.8 | 0.00 | 0.00 | 0.00 | 64 | 980.8 |
| 20260509042824 | 10 | 193 | 1.6 | 4.8 | 0.00 | 0.00 | 0.00 | 66 | 980.9 |
| 20260509042324 | 9 | 124 | 0.0 | 3.2 | 0.00 | 0.00 | 0.00 | 68 | 980.8 |
| 20260509041823 | 9 | 178 | 0.0 | 1.6 | 0.00 | 0.00 | 0.00 | 69 | 980.9 |
| 20260509041322 | 9 | 198 | 0.0 | 0.0 | 0.00 | 0.00 | 0.00 | 70 | 981.1 |
| 20260509040822 | 9 | 197 | 0.0 | 0.0 | 0.00 | 0.00 | 0.00 | 69 | 981.2 |
| 20260509040321 | 9 | 197 | 0.0 | 0.0 | 0.00 | 0.00 | 0.00 | 67 | 981.1 |
| 20260509035822 | 9 | 197 | 0.0 | 0.0 | 0.00 | 0.00 | 0.00 | 66 | 981.1 |
| 20260509035327 | 9 | 197 | 0.0 | 0.0 | 0.00 | 0.00 | 0.00 | 66 | 980.8 |
| 20260509035322 | 9 | 197 | 0.0 | 0.0 | 0.00 | 0.00 | 0.00 | 67 | 980.9 |
| 20260509034322 | 9 | 197 | 0.0 | 0.0 | 0.00 | 0.00 | 0.00 | 66 | 980.8 |
| 20260509033822 | 9 | 197 | 0.0 | 0.0 | 0.00 | 0.00 | 0.00 | 67 | 980.7 |
| 20260509033322 | 10 | 197 | 0.0 | 0.0 | 0.00 | 0.00 | 0.00 | 66 | 980.7 |
| 20260509032821 | 10 | 197 | 0.0 | 0.0 | 0.00 | 0.00 | 0.00 | 65 | 980.7 |
| 20260509032320 | 10 | 197 | 0.0 | 0.0 | 0.00 | 0.00 | 0.00 | 64 | 980.7 |
| 20260509031820 | 10 | 197 | 0.0 | 0.0 | 0.00 | 0.00 | 0.00 | 64 | 980.7 |
| 20260509031320 | 10 | 197 | 0.0 | 0.0 | 0.00 | 0.00 | 0.00 | 64 | 980.6 |
| 20260509030820 | 11 | 197 | 0.0 | 0.0 | 0.00 | 0.00 | 0.00 | 64 | 980.5 |
| 20260509030320 | 11 | 151 | 0.0 | 4.8 | 0.00 | 0.00 | 0.00 | 64 | 980.4 |
| 20260509025819 | 11 | 179 | 1.6 | 4.8 | 0.00 | 0.00 | 0.00 | 62 | 980.4 |
| 20260509025320 | 11 | 159 | 0.0 | 4.8 | 0.00 | 0.00 | 0.00 | 63 | 980.2 |
| 20260509024821 | 11 | 163 | 0.0 | 3.2 | 0.00 | 0.00 | 0.00 | 63 | 980.2 |
| 20260509024319 | 11 | 160 | 0.0 | 3.2 | 0.00 | 0.00 | 0.00 | 62 | 980.1 |
| 20260509023820 | 11 | 197 | 0.0 | 3.2 | 0.00 | 0.00 | 0.00 | 61 | 980.1 |
| 20260509023317 | 11 | 141 | 0.0 | 1.6 | 0.00 | 0.00 | 0.00 | 60 | 980.1 |
| 20260509022817 | 12 | 143 | 0.0 | 1.6 | 0.00 | 0.00 | 0.00 | 60 | 980.1 |
| 20260509022317 | 12 | 170 | 0.0 | 0.0 | 0.00 | 0.00 | 0.00 | 58 | 980.1 |
| 20260509021817 | 12 | 151 | 0.0 | 0.0 | 0.00 | 0.00 | 0.00 | 56 | 980.1 |
| 20260509021316 | 13 | 151 | 0.0 | 0.0 | 0.00 | 0.00 | 0.00 | 55 | 980.0 |
| 20260509020816 | 13 | 118 | 0.0 | 1.6 | 0.00 | 0.00 | 0.00 | 53 | 979.9 |
| 20260509020316 | 13 | 125 | 0.0 | 1.6 | 0.00 | 0.00 | 0.00 | 53 | 979.9 |
| 20260509015816 | 14 | 129 | 0.0 | 1.6 | 0.00 | 0.00 | 0.00 | 51 | 979.9 |
| 20260509015314 | 14 | 128 | 0.0 | 1.6 | 0.00 | 0.00 | 0.00 | 50 | 979.9 |
| 20260509014817 | 14 | 122 | 0.0 | 1.6 | 0.00 | 0.00 | 0.00 | 49 | 979.8 |
| 20260509014813 | 15 | 155 | 0.0 | 0.0 | 0.00 | 0.00 | 0.00 | 49 | 979.6 |
| 20260509013812 | 15 | 155 | 0.0 | 0.0 | 0.00 | 0.00 | 0.00 | 48 | 979.5 |
| 20260509013312 | 15 | 142 | 0.0 | 0.0 | 0.00 | 0.00 | 0.00 | 47 | 979.4 |
| 20260509012812 | 15 | 141 | 0.0 | 1.6 | 0.00 | 0.00 | 0.00 | 46 | 979.4 |
| 20260509012312 | 16 | 142 | 0.0 | 3.2 | 0.00 | 0.00 | 0.00 | 44 | 979.3 |
| 20260509011810 | 16 | 34 | 0.0 | 3.2 | 0.00 | 0.00 | 0.00 | 44 | 979.3 |
| 20260509011314 | 16 | 269 | 0.0 | 1.6 | 0.00 | 0.00 | 0.00 | 43 | 979.4 |
| 20260509011310 | 16 | 234 | 0.0 | 1.6 | 0.00 | 0.00 | 0.00 | 44 | 979.4 |
| 20260509010915 | 16 | 137 | 0.0 | 1.6 | 0.00 | 0.00 | 0.00 | 44 | 979.3 |
| 20260509005808 | 17 | 296 | 0.0 | 1.6 | 0.00 | 0.00 | 0.00 | 42 | 979.5 |
| 20260509005308 | 17 | 221 | 0.0 | 3.2 | 0.00 | 0.00 | 0.00 | 42 | 979.6 |
| 20260509004808 | 17 | 314 | 0.0 | 4.8 | 0.00 | 0.00 | 0.00 | 41 | 979.6 |
| 20260509004314 | 18 | 249 | 0.0 | 4.8 | 0.00 | 0.00 | 0.00 | 41 | 979.5 |
| 20260509003813 | 17 | 230 | 0.0 | 1.6 | 0.00 | 0.00 | 0.00 | 41 | 979.5 |
| 20260509003809 | 17 | 148 | 0.0 | 1.6 | 0.00 | 0.00 | 0.00 | 41 | 979.5 |
| 20260509002807 | 17 | 188 | 0.0 | 1.6 | 0.00 | 0.00 | 0.00 | 42 | 979.4 |
| 20260509002308 | 17 | 280 | 0.0 | 1.6 | 0.00 | 0.00 | 0.00 | 41 | 979.4 |
| 20260509001808 | 17 | 340 | 0.0 | 1.6 | 0.00 | 0.00 | 0.00 | 41 | 979.3 |
| 20260509001308 | 18 | 192 | 0.0 | 1.6 | 0.00 | 0.00 | 0.00 | 40 | 979.4 |
| 20260509000808 | 18 | 217 | 0.0 | 6.4 | 0.00 | 0.00 | 0.00 | 39 | 979.3 |
| 20260509000307 | 18 | 281 | 1.6 | 8.0 | 0.00 | 0.00 | 0.00 | 38 | 979.4 |
| 20260508235808 | 18 | 0 | 1.6 | 8.0 | 0.00 | 0.00 | 0.00 | 37 | 979.4 |
| 20260508235308 | 19 | 327 | 0.0 | 4.8 | 0.00 | 0.00 | 0.00 | 36 | 979.3 |
| 20260508234807 | 19 | 319 | 0.0 | 4.8 | 0.00 | 0.00 | 0.00 | 37 | 979.3 |
| 20260508234308 | 20 | 241 | 1.6 | 8.0 | 0.00 | 0.00 | 0.00 | 37 | 979.3 |
| 20260508233807 | 19 | 104 | 1.6 | 8.0 | 0.00 | 0.00 | 0.00 | 36 | 979.2 |
| 20260508233308 | 20 | 359 | 1.6 | 8.0 | 0.00 | 0.00 | 0.00 | 37 | 979.2 |
| 20260508232807 | 19 | 320 | 1.6 | 9.7 | 0.00 | 0.00 | 0.00 | 37 | 979.2 |
| 20260508232307 | 20 | 347 | 0.0 | 9.7 | 0.00 | 0.00 | 0.00 | 36 | 979.3 |
| 20260508231808 | 20 | 32 | 1.6 | 9.7 | 0.00 | 0.00 | 0.00 | 37 | 979.2 |
| 20260508231312 | 19 | 327 | 3.2 | 12.9 | 0.00 | 0.00 | 0.00 | 36 | 979.3 |
| 20260508231307 | 19 | 313 | 3.2 | 12.9 | 0.00 | 0.00 | 0.00 | 39 | 979.3 |
| 20260508230307 | 20 | 206 | 0.0 | 8.0 | 0.00 | 0.00 | 0.00 | 37 | 979.3 |
| 20260508225807 | 20 | 176 | 0.0 | 4.8 | 0.00 | 0.00 | 0.00 | 36 | 979.4 |
| 20260508225307 | 20 | 140 | 0.0 | 3.2 | 0.00 | 0.00 | 0.00 | 37 | 979.3 |
| 20260508224807 | 20 | 228 | 0.0 | 4.8 | 0.00 | 0.00 | 0.00 | 38 | 979.3 |
| 20260508224311 | 20 | 143 | 3.2 | 16.1 | 0.00 | 0.00 | 0.00 | 39 | 979.3 |
| 20260508224306 | 19 | 335 | 3.2 | 16.1 | 0.00 | 0.00 | 0.00 | 38 | 979.3 |
| 20260508223305 | 19 | 330 | 3.2 | 9.7 | 0.00 | 0.00 | 0.00 | 38 | 979.3 |
| 20260508222806 | 20 | 354 | 1.6 | 9.7 | 0.00 | 0.00 | 0.00 | 38 | 979.3 |
| 20260508222306 | 20 | 332 | 1.6 | 9.7 | 0.00 | 0.00 | 0.00 | 37 | 979.3 |
| 20260508221805 | 20 | 358 | 0.0 | 6.4 | 0.00 | 0.00 | 0.00 | 36 | 979.4 |
| 20260508221305 | 20 | 120 | 1.6 | 8.0 | 0.00 | 0.00 | 0.00 | 36 | 979.4 |
| 20260508220805 | 19 | 158 | 1.6 | 8.0 | 0.00 | 0.00 | 0.00 | 37 | 979.4 |
| 20260508220305 | 20 | 306 | 0.0 | 4.8 | 0.00 | 0.00 | 0.00 | 37 | 979.4 |
| 20260508215803 | 20 | 111 | 0.0 | 3.2 | 0.00 | 0.00 | 0.00 | 38 | 979.5 |
| 20260508215306 | 20 | 157 | 0.0 | 8.0 | 0.00 | 0.00 | 0.00 | 37 | 979.6 |
| 20260508214801 | 20 | 229 | 0.0 | 8.0 | 0.00 | 0.00 | 0.00 | 37 | 979.6 |
| 20260508214301 | 19 | 226 | 1.6 | 11.3 | 0.00 | 0.00 | 0.00 | 36 | 979.6 |
| 20260508213800 | 18 | 252 | 3.2 | 11.3 | 0.00 | 0.00 | 0.00 | 39 | 979.6 |
| 20260508213301 | 18 | 0 | 3.2 | 11.3 | 0.00 | 0.00 | 0.00 | 39 | 979.6 |
| 20260508212801 | 18 | 27 | 3.2 | 11.3 | 0.00 | 0.00 | 0.00 | 39 | 979.8 |
| 20260508212301 | 19 | 16 | 1.6 | 11.3 | 0.00 | 0.00 | 0.00 | 36 | 979.8 |
| 20260508211801 | 19 | 326 | 1.6 | 6.4 | 0.00 | 0.00 | 0.00 | 39 | 979.8 |
| 20260508211301 | 19 | 332 | 1.6 | 8.0 | 0.00 | 0.00 | 0.00 | 40 | 979.9 |
| 20260508210801 | 18 | 297 | 1.6 | 12.9 | 0.00 | 0.00 | 0.00 | 40 | 979.9 |
| 20260508210301 | 18 | 5 | 3.2 | 12.9 | 0.00 | 0.00 | 0.00 | 40 | 980.0 |
| 20260508205803 | 18 | 344 | 4.8 | 14.5 | 0.00 | 0.00 | 0.00 | 39 | 980.0 |
| 20260508205759 | 18 | 4 | 4.8 | 12.9 | 0.00 | 0.00 | 0.00 | 39 | 980.0 |
| 20260508204757 | 18 | 340 | 4.8 | 14.5 | 0.00 | 0.00 | 0.00 | 38 | 980.0 |
| 20260508204257 | 18 | 7 | 4.8 | 14.5 | 0.00 | 0.00 | 0.00 | 39 | 979.9 |
| 20260508203757 | 18 | 349 | 4.8 | 16.1 | 0.00 | 0.00 | 0.00 | 38 | 980.0 |
| 20260508203257 | 18 | 356 | 3.2 | 16.1 | 0.00 | 0.00 | 0.00 | 37 | 980.2 |
| 20260508202757 | 19 | 16 | 1.6 | 11.3 | 0.00 | 0.00 | 0.00 | 37 | 980.1 |
| 20260508202258 | 18 | 151 | 1.6 | 11.3 | 0.00 | 0.00 | 0.00 | 39 | 980.2 |
| 20260508201757 | 18 | 352 | 3.2 | 12.9 | 0.00 | 0.00 | 0.00 | 40 | 980.2 |
| 20260508201257 | 18 | 335 | 3.2 | 14.5 | 0.00 | 0.00 | 0.00 | 39 | 980.1 |
| 20260508200757 | 18 | 307 | 3.2 | 14.5 | 0.00 | 0.00 | 0.00 | 41 | 980.2 |
| 20260508200257 | 18 | 342 | 3.2 | 12.9 | 0.00 | 0.00 | 0.00 | 39 | 980.2 |
| 20260508195754 | 18 | 230 | 6.4 | 17.7 | 0.00 | 0.00 | 0.00 | 41 | 980.4 |
| 20260508195255 | 17 | 13 | 6.4 | 17.7 | 0.00 | 0.00 | 0.00 | 38 | 980.4 |
| 20260508194755 | 17 | 340 | 4.8 | 17.7 | 0.00 | 0.00 | 0.00 | 40 | 980.4 |
| 20260508194255 | 18 | 359 | 4.8 | 17.7 | 0.00 | 0.00 | 0.00 | 36 | 980.4 |
| 20260508193755 | 18 | 128 | 4.8 | 16.1 | 0.00 | 0.00 | 0.00 | 37 | 980.4 |
| 20260508193255 | 18 | 207 | 4.8 | 12.9 | 0.00 | 0.00 | 0.00 | 39 | 980.4 |
| 20260508192254 | 17 | 330 | 6.4 | 16.1 | 0.00 | 0.00 | 0.00 | 40 | 980.5 |
| 20260508191757 | 17 | 334 | 6.4 | 19.3 | 0.00 | 0.00 | 0.00 | 39 | 980.6 |
| 20260508191753 | 17 | 329 | 6.4 | 17.7 | 0.00 | 0.00 | 0.00 | 37 | 980.5 |
| 20260508191359 | 17 | 4 | 4.8 | 19.3 | 0.00 | 0.00 | 0.00 | 37 | 980.5 |
| 20260508190253 | 17 | 342 | 3.2 | 12.9 | 0.00 | 0.00 | 0.00 | 40 | 980.6 |
| 20260508185753 | 17 | 321 | 4.8 | 14.5 | 0.00 | 0.00 | 0.00 | 38 | 980.6 |
| 20260508185253 | 17 | 322 | 4.8 | 14.5 | 0.00 | 0.00 | 0.00 | 39 | 980.6 |
| 20260508184753 | 17 | 349 | 4.8 | 12.9 | 0.00 | 0.00 | 0.00 | 38 | 980.6 |
| 20260508184253 | 17 | 316 | 3.2 | 12.9 | 0.00 | 0.00 | 0.00 | 39 | 980.8 |
| 20260508183750 | 16 | 333 | 1.6 | 11.3 | 0.00 | 0.00 | 0.00 | 40 | 980.8 |
| 20260508183250 | 16 | 331 | 4.8 | 16.1 | 0.00 | 0.00 | 0.00 | 42 | 980.9 |
| 20260508182748 | 16 | 2 | 8.0 | 16.1 | 0.00 | 0.00 | 0.00 | 43 | 981.1 |
| 20260508182249 | 16 | 352 | 4.8 | 14.5 | 0.00 | 0.00 | 0.00 | 43 | 980.9 |
| 20260508181749 | 16 | 304 | 4.8 | 14.5 | 0.00 | 0.00 | 0.00 | 39 | 981.1 |
| 20260508181253 | 17 | 333 | 0.0 | 9.7 | 0.00 | 0.00 | 0.00 | 40 | 981.2 |
| 20260508181249 | 16 | 312 | 4.8 | 14.5 | 0.00 | 0.00 | 0.00 | 39 | 981.2 |
| 20260508180248 | 17 | 60 | 1.6 | 6.4 | 0.00 | 0.00 | 0.00 | 45 | 981.3 |
| 20260508175749 | 16 | 172 | 1.6 | 6.4 | 0.00 | 0.00 | 0.00 | 43 | 981.3 |
| 20260508175249 | 16 | 157 | 0.0 | 6.4 | 0.00 | 0.00 | 0.00 | 43 | 981.4 |
| 20260508174749 | 16 | 139 | 0.0 | 4.8 | 0.00 | 0.00 | 0.00 | 44 | 981.4 |
| 20260508174248 | 16 | 211 | 0.0 | 4.8 | 0.00 | 0.00 | 0.00 | 44 | 981.4 |
| 20260508173748 | 16 | 326 | 0.0 | 4.8 | 0.00 | 0.00 | 0.00 | 42 | 981.5 |
| 20260508173248 | 16 | 153 | 0.0 | 8.0 | 0.00 | 0.00 | 0.00 | 46 | 981.5 |
| 20260508172750 | 15 | 149 | 1.6 | 8.0 | 0.00 | 0.00 | 0.00 | 47 | 981.7 |
| 20260508172253 | 15 | 346 | 0.0 | 4.8 | 0.00 | 0.00 | 0.00 | 48 | 981.5 |
| 20260508172249 | 15 | 254 | 1.6 | 6.4 | 0.00 | 0.00 | 0.00 | 46 | 981.5 |
| 20260508171249 | 15 | 214 | 0.0 | 4.8 | 0.00 | 0.00 | 0.00 | 47 | 981.7 |
| 20260508170748 | 14 | 287 | 0.0 | 3.2 | 0.00 | 0.00 | 0.00 | 52 | 981.7 |
| 20260508170253 | 13 | 327 | 1.6 | 8.0 | 0.00 | 0.00 | 0.00 | 53 | 981.8 |
| 20260508170249 | 13 | 28 | 1.6 | 6.4 | 0.00 | 0.00 | 0.00 | 52 | 981.8 |
| 20260508165249 | 13 | 268 | 1.6 | 8.0 | 0.00 | 0.00 | 0.00 | 51 | 981.8 |
| 20260508164749 | 13 | 29 | 0.0 | 6.4 | 0.00 | 0.00 | 0.00 | 51 | 981.9 |
| 20260508164249 | 13 | 198 | 0.0 | 4.8 | 0.00 | 0.00 | 0.00 | 54 | 981.9 |
| 20260508163749 | 13 | 304 | 0.0 | 4.8 | 0.00 | 0.00 | 0.00 | 50 | 982.0 |
| 20260508163249 | 13 | 175 | 0.0 | 3.2 | 0.00 | 0.00 | 0.00 | 49 | 982.0 |
| 20260508162749 | 13 | 120 | 1.6 | 9.7 | 0.00 | 0.00 | 0.00 | 54 | 982.0 |
| 20260508162249 | 12 | 353 | 1.6 | 9.7 | 0.00 | 0.03 | 0.00 | 55 | 982.1 |
| 20260508161748 | 12 | 340 | 1.6 | 6.4 | 0.00 | 0.03 | 0.00 | 58 | 982.0 |
| 20260508161249 | 12 | 322 | 1.6 | 6.4 | 0.00 | 0.03 | 0.00 | 56 | 982.0 |
| 20260508160749 | 12 | 203 | 1.6 | 6.4 | 0.00 | 0.05 | 0.00 | 59 | 982.1 |
| 20260508160253 | 11 | 189 | 1.6 | 6.4 | 0.00 | 0.05 | 0.00 | 60 | 982.1 |
| 20260508160248 | 11 | 285 | 1.6 | 6.4 | 0.00 | 0.05 | 0.00 | 61 | 982.1 |
| 20260508155248 | 11 | 304 | 1.6 | 6.4 | 0.00 | 0.08 | 0.00 | 60 | 982.1 |
| 20260508154749 | 11 | 219 | 1.6 | 8.0 | 0.00 | 0.08 | 0.00 | 63 | 982.2 |
| 20260508154253 | 10 | 185 | 1.6 | 4.8 | 0.00 | 0.08 | 0.00 | 67 | 982.2 |
| 20260508154248 | 11 | 181 | 1.6 | 8.0 | 0.00 | 0.08 | 0.00 | 65 | 982.2 |
| 20260508153248 | 10 | 294 | 0.0 | 4.8 | 0.00 | 0.08 | 0.00 | 67 | 982.5 |
| 20260508152749 | 10 | 182 | 1.6 | 6.4 | 0.00 | 0.08 | 0.00 | 68 | 982.5 |
| 20260508152248 | 10 | 191 | 3.2 | 6.4 | 0.00 | 0.08 | 0.00 | 71 | 982.5 |
| 20260508151748 | 10 | 265 | 1.6 | 6.4 | 0.00 | 0.08 | 0.00 | 72 | 982.5 |
| 20260508151248 | 9 | 200 | 1.6 | 6.4 | 0.00 | 0.08 | 0.00 | 72 | 982.5 |
| 20260508150748 | 9 | 244 | 1.6 | 6.4 | 0.00 | 0.08 | 0.00 | 72 | 982.6 |
| 20260508150251 | 9 | 188 | 1.6 | 6.4 | 0.00 | 0.08 | 0.00 | 76 | 982.6 |
| 20260508150247 | 8 | 158 | 0.0 | 4.8 | 0.00 | 0.08 | 0.00 | 76 | 982.7 |
| 20260508145246 | 8 | 200 | 0.0 | 3.2 | 0.00 | 0.08 | 0.00 | 78 | 982.7 |
| 20260508144751 | 8 | 262 | 0.0 | 4.8 | 0.00 | 0.08 | 0.00 | 77 | 983.0 |
| 20260508144747 | 8 | 5 | 0.0 | 4.8 | 0.00 | 0.08 | 0.00 | 77 | 982.8 |
| 20260508144352 | 8 | 333 | 0.0 | 4.8 | 0.00 | 0.08 | 0.00 | 78 | 983.0 |
| 20260508143245 | 7 | 323 | 0.0 | 4.8 | 0.00 | 0.08 | 0.00 | 81 | 982.8 |
| 20260508142745 | 7 | 283 | 0.0 | 1.6 | 0.00 | 0.08 | 0.00 | 83 | 982.8 |
| 20260508142249 | 6 | 317 | 0.0 | 3.2 | 0.00 | 0.08 | 0.00 | 83 | 983.0 |
| 20260508142245 | 7 | 192 | 0.0 | 3.2 | 0.00 | 0.08 | 0.00 | 82 | 983.0 |
| 20260508141245 | 6 | 217 | 0.0 | 1.6 | 0.00 | 0.08 | 0.00 | 84 | 983.0 |
| 20260508140744 | 6 | 229 | 0.0 | 1.6 | 0.00 | 0.08 | 0.00 | 84 | 983.0 |
| 20260508140244 | 6 | 323 | 0.0 | 1.6 | 0.00 | 0.08 | 0.00 | 85 | 983.0 |
| 20260508135745 | 6 | 342 | 0.0 | 1.6 | 0.00 | 0.08 | 0.00 | 86 | 983.0 |
| 20260508135246 | 5 | 205 | 0.0 | 3.2 | 0.00 | 0.08 | 0.00 | 86 | 983.0 |
| 20260508135242 | 6 | 291 | 0.0 | 1.6 | 0.00 | 0.08 | 0.00 | 86 | 983.0 |
| 20260508134244 | 5 | 0 | 0.0 | 3.2 | 0.00 | 0.08 | 0.00 | 86 | 982.8 |
| 20260508134240 | 5 | 347 | 0.0 | 3.2 | 0.00 | 0.08 | 0.00 | 87 | 983.0 |
| 20260508133240 | 5 | 308 | 0.0 | 3.2 | 0.00 | 0.08 | 0.00 | 87 | 982.8 |
| 20260508132740 | 5 | 1 | 0.0 | 1.6 | 0.00 | 0.08 | 0.00 | 87 | 983.0 |
| 20260508132241 | 5 | 340 | 0.0 | 4.8 | 0.00 | 0.08 | 0.00 | 88 | 982.8 |
| 20260508131740 | 5 | 359 | 0.0 | 6.4 | 0.00 | 0.08 | 0.00 | 88 | 982.8 |
| 20260508131347 | 3 | 319 | 0.0 | 3.2 | 0.00 | 0.08 | 0.00 | 88 | 982.5 |
| 20260508131244 | 4 | 335 | 0.0 | 4.8 | 0.00 | 0.08 | 0.00 | 88 | 982.6 |
| 20260508131240 | 4 | 296 | 0.0 | 6.4 | 0.00 | 0.08 | 0.00 | 88 | 982.7 |
| 20260508125744 | 3 | 148 | 0.0 | 0.0 | 0.00 | 0.08 | 0.00 | 89 | 982.2 |
| 20260508125740 | 3 | 13 | 0.0 | 3.2 | 0.00 | 0.08 | 0.00 | 89 | 982.4 |
| 20260508124738 | 2 | 148 | 0.0 | 0.0 | 0.00 | 0.08 | 0.00 | 88 | 981.9 |
| 20260508124238 | 2 | 148 | 0.0 | 0.0 | 0.00 | 0.08 | 0.00 | 89 | 981.5 |
| 20260508123738 | 2 | 206 | 0.0 | 0.0 | 0.00 | 0.08 | 0.00 | 87 | 981.7 |
| 20260508123238 | 2 | 206 | 0.0 | 0.0 | 0.00 | 0.08 | 0.00 | 87 | 981.5 |
| 20260508122738 | 2 | 206 | 0.0 | 0.0 | 0.00 | 0.08 | 0.00 | 86 | 981.5 |
| 20260508122240 | 2 | 206 | 0.0 | 0.0 | 0.00 | 0.08 | 0.00 | 86 | 981.2 |
| 20260508121738 | 2 | 207 | 0.0 | 0.0 | 0.00 | 0.08 | 0.00 | 86 | 981.2 |
| 20260508121238 | 3 | 207 | 0.0 | 0.0 | 0.00 | 0.08 | 0.00 | 87 | 981.1 |
| 20260508120742 | 2 | 207 | 0.0 | 0.0 | 0.00 | 0.08 | 0.00 | 86 | 980.9 |
| 20260508120738 | 2 | 207 | 0.0 | 0.0 | 0.00 | 0.08 | 0.00 | 87 | 980.9 |
| 20260508120237 | 2 | 206 | 0.0 | 0.0 | 0.00 | 0.08 | 0.00 | 85 | 980.7 |
| 20260508115236 | 3 | 199 | 0.0 | 1.6 | 0.00 | 0.08 | 0.00 | 85 | 980.7 |
| 20260508114735 | 3 | 330 | 0.0 | 1.6 | 0.00 | 0.08 | 0.00 | 85 | 980.6 |
| 20260508114241 | 3 | 351 | 0.0 | 4.8 | 0.00 | 0.08 | 0.00 | 83 | 980.6 |
| 20260508114236 | 3 | 205 | 1.6 | 12.9 | 0.00 | 0.08 | 0.00 | 84 | 980.6 |
| 20260508113736 | 3 | 348 | 1.6 | 12.9 | 0.00 | 0.08 | 0.00 | 82 | 980.5 |
| 20260508112736 | 3 | 168 | 0.0 | 3.2 | 0.00 | 0.08 | 0.00 | 84 | 980.1 |
| 20260508112236 | 3 | 219 | 0.0 | 1.6 | 0.00 | 0.08 | 0.00 | 85 | 980.1 |
| 20260508111736 | 3 | 213 | 0.0 | 0.0 | 0.00 | 0.08 | 0.00 | 83 | 980.1 |
| 20260508111235 | 3 | 274 | 0.0 | 1.6 | 0.00 | 0.08 | 0.00 | 83 | 980.1 |
| 20260508110734 | 3 | 274 | 0.0 | 3.2 | 0.00 | 0.08 | 0.00 | 83 | 980.2 |
| 20260508110234 | 3 | 213 | 0.0 | 3.2 | 0.00 | 0.08 | 0.00 | 86 | 980.2 |
| 20260508105735 | 3 | 259 | 0.0 | 1.6 | 0.00 | 0.08 | 0.00 | 88 | 980.2 |
| 20260508105234 | 2 | 197 | 0.0 | 0.0 | 0.00 | 0.08 | 0.00 | 85 | 980.4 |
| 20260508104738 | 2 | 188 | 0.0 | 0.0 | 0.00 | 0.08 | 0.00 | 85 | 980.1 |
| 20260508104734 | 2 | 197 | 0.0 | 0.0 | 0.00 | 0.08 | 0.00 | 84 | 980.2 |
| 20260508103734 | 2 | 188 | 0.0 | 0.0 | 0.00 | 0.08 | 0.00 | 84 | 980.1 |
| 20260508103233 | 3 | 188 | 0.0 | 0.0 | 0.00 | 0.08 | 0.00 | 84 | 980.1 |
| 20260508102734 | 3 | 219 | 0.0 | 0.0 | 0.00 | 0.08 | 0.00 | 83 | 980.2 |
| 20260508102234 | 3 | 219 | 0.0 | 0.0 | 0.00 | 0.08 | 0.00 | 83 | 980.0 |
| 20260508101732 | 3 | 219 | 0.0 | 0.0 | 0.00 | 0.08 | 0.00 | 83 | 980.1 |
| 20260508101231 | 3 | 219 | 0.0 | 0.0 | 0.00 | 0.08 | 0.00 | 83 | 980.1 |
| 20260508100731 | 3 | 219 | 0.0 | 0.0 | 0.00 | 0.08 | 0.00 | 84 | 980.0 |
| 20260508100236 | 3 | 208 | 0.0 | 0.0 | 0.00 | 0.08 | 0.00 | 84 | 980.0 |
| 20260508100232 | 3 | 219 | 0.0 | 0.0 | 0.00 | 0.08 | 0.00 | 85 | 980.0 |
| 20260508095232 | 3 | 3 | 0.0 | 0.0 | 0.00 | 0.08 | 0.00 | 84 | 979.9 |
| 20260508094732 | 3 | 3 | 0.0 | 0.0 | 0.00 | 0.08 | 0.00 | 83 | 979.8 |
| 20260508094229 | 3 | 3 | 0.0 | 0.0 | 0.00 | 0.08 | 0.00 | 84 | 979.8 |
| 20260508093731 | 3 | 3 | 0.0 | 0.0 | 0.00 | 0.08 | 0.00 | 83 | 979.8 |
| 20260508093230 | 3 | 3 | 0.0 | 0.0 | 0.00 | 0.08 | 0.00 | 83 | 979.8 |
| 20260508092729 | 3 | 3 | 0.0 | 0.0 | 0.00 | 0.08 | 0.00 | 82 | 979.9 |
| 20260508092227 | 3 | 3 | 0.0 | 0.0 | 0.00 | 0.08 | 0.00 | 82 | 979.9 |
| 20260508091727 | 3 | 3 | 0.0 | 0.0 | 0.00 | 0.08 | 0.00 | 82 | 979.9 |
| 20260508091227 | 4 | 3 | 0.0 | 0.0 | 0.00 | 0.08 | 0.00 | 81 | 980.0 |
| 20260508090727 | 4 | 3 | 0.0 | 0.0 | 0.00 | 0.08 | 0.00 | 80 | 980.0 |
| 20260508090227 | 4 | 3 | 0.0 | 0.0 | 0.00 | 0.08 | 0.00 | 79 | 980.0 |
| 20260508085728 | 5 | 3 | 0.0 | 1.6 | 0.00 | 0.08 | 0.00 | 79 | 980.0 |
| 20260508085228 | 5 | 3 | 0.0 | 1.6 | 0.00 | 0.08 | 0.00 | 79 | 980.1 |
| 20260508084726 | 5 | 156 | 0.0 | 0.0 | 0.00 | 0.08 | 0.00 | 79 | 979.9 |
| 20260508084225 | 5 | 157 | 0.0 | 0.0 | 0.00 | 0.08 | 0.00 | 79 | 979.9 |
| 20260508083726 | 5 | 157 | 0.0 | 0.0 | 0.00 | 0.08 | 0.00 | 78 | 980.0 |
| 20260508083225 | 5 | 156 | 0.0 | 0.0 | 0.00 | 0.08 | 0.00 | 78 | 980.0 |
| 20260508082724 | 5 | 157 | 0.0 | 0.0 | 0.00 | 0.08 | 0.00 | 77 | 980.1 |
| 20260508082223 | 5 | 157 | 0.0 | 0.0 | 0.00 | 0.08 | 0.00 | 78 | 980.1 |
| 20260508081723 | 5 | 157 | 0.0 | 0.0 | 0.00 | 0.08 | 0.00 | 78 | 980.2 |
| 20260508081223 | 5 | 156 | 0.0 | 0.0 | 0.00 | 0.08 | 0.00 | 77 | 980.4 |
| 20260508080729 | 6 | 156 | 0.0 | 1.6 | 0.00 | 0.08 | 0.00 | 74 | 980.5 |
| 20260508080725 | 5 | 157 | 0.0 | 1.6 | 0.00 | 0.08 | 0.00 | 76 | 980.5 |
| 20260508075723 | 6 | 135 | 0.0 | 1.6 | 0.00 | 0.08 | 0.00 | 74 | 980.6 |
| 20260508075224 | 7 | 199 | 0.0 | 1.6 | 0.00 | 0.08 | 0.00 | 73 | 980.7 |
| 20260508074724 | 6 | 219 | 0.0 | 1.6 | 0.00 | 0.08 | 0.00 | 73 | 980.8 |
| 20260508074226 | 6 | 170 | 0.0 | 1.6 | 0.00 | 0.08 | 0.00 | 75 | 980.9 |
| 20260508074222 | 6 | 178 | 0.0 | 0.0 | 0.00 | 0.08 | 0.00 | 75 | 981.1 |
| 20260508073721 | 6 | 170 | 0.0 | 0.0 | 0.00 | 0.08 | 0.00 | 76 | 980.9 |
| 20260508072721 | 6 | 170 | 0.0 | 3.2 | 0.00 | 0.08 | 0.00 | 75 | 980.8 |
| 20260508072222 | 6 | 220 | 0.0 | 3.2 | 0.00 | 0.08 | 0.00 | 74 | 980.8 |
| 20260508071722 | 6 | 129 | 0.0 | 1.6 | 0.00 | 0.08 | 0.00 | 74 | 980.7 |
| 20260508071221 | 6 | 165 | 0.0 | 0.0 | 0.00 | 0.08 | 0.00 | 73 | 981.1 |
| 20260508070721 | 6 | 165 | 0.0 | 1.6 | 0.00 | 0.08 | 0.00 | 72 | 980.9 |
| 20260508070221 | 6 | 165 | 0.0 | 1.6 | 0.00 | 0.08 | 0.00 | 72 | 980.8 |
| 20260508065721 | 7 | 346 | 0.0 | 1.6 | 0.00 | 0.08 | 0.00 | 70 | 980.9 |
| 20260508065221 | 7 | 346 | 0.0 | 1.6 | 0.00 | 0.08 | 0.00 | 70 | 981.2 |
| 20260508064721 | 7 | 332 | 0.0 | 1.6 | 0.00 | 0.08 | 0.00 | 70 | 980.9 |
| 20260508064226 | 7 | 212 | 0.0 | 0.0 | 0.00 | 0.08 | 0.00 | 69 | 980.7 |
| 20260508064222 | 7 | 208 | 0.0 | 0.0 | 0.00 | 0.08 | 0.00 | 70 | 980.7 |